Index of /20260419/WXO-DD/model_gdps/15km/00/084
Name Last modified Size Description
Parent Directory -
20260419T00Z_MSC_GDPS_AbsoluteVorticity_IsbL-0200_LatLon0.15_PT084H.grib2 2026-04-19 04:23 1.5M
20260419T00Z_MSC_GDPS_AbsoluteVorticity_IsbL-0250_LatLon0.15_PT084H.grib2 2026-04-19 04:23 1.3M
20260419T00Z_MSC_GDPS_AbsoluteVorticity_IsbL-0500_LatLon0.15_PT084H.grib2 2026-04-19 04:23 1.2M
20260419T00Z_MSC_GDPS_AbsoluteVorticity_IsbL-0700_LatLon0.15_PT084H.grib2 2026-04-19 04:23 1.6M
20260419T00Z_MSC_GDPS_AbsoluteVorticity_IsbL-0850_LatLon0.15_PT084H.grib2 2026-04-19 04:23 1.6M
20260419T00Z_MSC_GDPS_AirTemp-Max_AGL-2m_LatLon0.15_PT084H.grib2 2026-04-19 04:23 739K
20260419T00Z_MSC_GDPS_AirTemp-Min_AGL-2m_LatLon0.15_PT084H.grib2 2026-04-19 04:23 786K
20260419T00Z_MSC_GDPS_AirTemp_AGL-120m_LatLon0.15_PT084H.grib2 2026-04-19 04:23 901K
20260419T00Z_MSC_GDPS_AirTemp_AGL-2m_LatLon0.15_PT084H.grib2 2026-04-19 04:23 1.0M
20260419T00Z_MSC_GDPS_AirTemp_AGL-40m_LatLon0.15_PT084H.grib2 2026-04-19 04:23 920K
20260419T00Z_MSC_GDPS_AirTemp_AGL-80m_LatLon0.15_PT084H.grib2 2026-04-19 04:23 909K
20260419T00Z_MSC_GDPS_AirTemp_IsbL-0001_LatLon0.15_PT084H.grib2 2026-04-19 04:23 695K
20260419T00Z_MSC_GDPS_AirTemp_IsbL-0005_LatLon0.15_PT084H.grib2 2026-04-19 04:23 742K
20260419T00Z_MSC_GDPS_AirTemp_IsbL-0010_LatLon0.15_PT084H.grib2 2026-04-19 04:23 751K
20260419T00Z_MSC_GDPS_AirTemp_IsbL-0020_LatLon0.15_PT084H.grib2 2026-04-19 04:23 696K
20260419T00Z_MSC_GDPS_AirTemp_IsbL-0030_LatLon0.15_PT084H.grib2 2026-04-19 04:23 751K
20260419T00Z_MSC_GDPS_AirTemp_IsbL-0050_LatLon0.15_PT084H.grib2 2026-04-19 04:23 818K
20260419T00Z_MSC_GDPS_AirTemp_IsbL-0100_LatLon0.15_PT084H.grib2 2026-04-19 04:23 953K
20260419T00Z_MSC_GDPS_AirTemp_IsbL-0150_LatLon0.15_PT084H.grib2 2026-04-19 04:23 1.0M
20260419T00Z_MSC_GDPS_AirTemp_IsbL-0175_LatLon0.15_PT084H.grib2 2026-04-19 04:23 970K
20260419T00Z_MSC_GDPS_AirTemp_IsbL-0200_LatLon0.15_PT084H.grib2 2026-04-19 04:23 1.0M
20260419T00Z_MSC_GDPS_AirTemp_IsbL-0225_LatLon0.15_PT084H.grib2 2026-04-19 04:23 1.0M
20260419T00Z_MSC_GDPS_AirTemp_IsbL-0250_LatLon0.15_PT084H.grib2 2026-04-19 04:23 1.0M
20260419T00Z_MSC_GDPS_AirTemp_IsbL-0275_LatLon0.15_PT084H.grib2 2026-04-19 04:23 1.0M
20260419T00Z_MSC_GDPS_AirTemp_IsbL-0300_LatLon0.15_PT084H.grib2 2026-04-19 04:23 1.0M
20260419T00Z_MSC_GDPS_AirTemp_IsbL-0350_LatLon0.15_PT084H.grib2 2026-04-19 04:23 929K
20260419T00Z_MSC_GDPS_AirTemp_IsbL-0400_LatLon0.15_PT084H.grib2 2026-04-19 04:23 944K
20260419T00Z_MSC_GDPS_AirTemp_IsbL-0450_LatLon0.15_PT084H.grib2 2026-04-19 04:23 968K
20260419T00Z_MSC_GDPS_AirTemp_IsbL-0500_LatLon0.15_PT084H.grib2 2026-04-19 04:23 1.0M
20260419T00Z_MSC_GDPS_AirTemp_IsbL-0550_LatLon0.15_PT084H.grib2 2026-04-19 04:23 1.0M
20260419T00Z_MSC_GDPS_AirTemp_IsbL-0600_LatLon0.15_PT084H.grib2 2026-04-19 04:23 900K
20260419T00Z_MSC_GDPS_AirTemp_IsbL-0650_LatLon0.15_PT084H.grib2 2026-04-19 04:23 926K
20260419T00Z_MSC_GDPS_AirTemp_IsbL-0700_LatLon0.15_PT084H.grib2 2026-04-19 04:23 961K
20260419T00Z_MSC_GDPS_AirTemp_IsbL-0750_LatLon0.15_PT084H.grib2 2026-04-19 04:23 1.0M
20260419T00Z_MSC_GDPS_AirTemp_IsbL-0800_LatLon0.15_PT084H.grib2 2026-04-19 04:23 1.1M
20260419T00Z_MSC_GDPS_AirTemp_IsbL-0850_LatLon0.15_PT084H.grib2 2026-04-19 04:23 1.1M
20260419T00Z_MSC_GDPS_AirTemp_IsbL-0875_LatLon0.15_PT084H.grib2 2026-04-19 04:23 1.1M
20260419T00Z_MSC_GDPS_AirTemp_IsbL-0900_LatLon0.15_PT084H.grib2 2026-04-19 04:23 1.1M
20260419T00Z_MSC_GDPS_AirTemp_IsbL-0925_LatLon0.15_PT084H.grib2 2026-04-19 04:23 1.1M
20260419T00Z_MSC_GDPS_AirTemp_IsbL-0950_LatLon0.15_PT084H.grib2 2026-04-19 04:23 1.1M
20260419T00Z_MSC_GDPS_AirTemp_IsbL-0970_LatLon0.15_PT084H.grib2 2026-04-19 04:23 1.1M
20260419T00Z_MSC_GDPS_AirTemp_IsbL-0985_LatLon0.15_PT084H.grib2 2026-04-19 04:23 1.1M
20260419T00Z_MSC_GDPS_AirTemp_IsbL-1000_LatLon0.15_PT084H.grib2 2026-04-19 04:23 1.1M
20260419T00Z_MSC_GDPS_AirTemp_IsbL-1015_LatLon0.15_PT084H.grib2 2026-04-19 04:23 1.1M
20260419T00Z_MSC_GDPS_Albedo_Sfc_LatLon0.15_PT084H.grib2 2026-04-19 04:23 245K
20260419T00Z_MSC_GDPS_CAPE_Sfc_LatLon0.15_PT084H.grib2 2026-04-19 04:23 3.8M
20260419T00Z_MSC_GDPS_CIN_Sfc_LatLon0.15_PT084H.grib2 2026-04-19 04:23 2.9M
20260419T00Z_MSC_GDPS_CloudWater_EAtm_LatLon0.15_PT084H.grib2 2026-04-19 04:23 533K
20260419T00Z_MSC_GDPS_ConvectivePrecip-Accum_Sfc_LatLon0.15_PT084H.grib2 2026-04-19 04:23 3.4M
20260419T00Z_MSC_GDPS_DewPointDepression_AGL-2m_LatLon0.15_PT084H.grib2 2026-04-19 04:23 745K
20260419T00Z_MSC_GDPS_DewPointDepression_IsbL-0010_LatLon0.15_PT084H.grib2 2026-04-19 04:23 14K
20260419T00Z_MSC_GDPS_DewPointDepression_IsbL-0020_LatLon0.15_PT084H.grib2 2026-04-19 04:23 67K
20260419T00Z_MSC_GDPS_DewPointDepression_IsbL-0030_LatLon0.15_PT084H.grib2 2026-04-19 04:23 75K
20260419T00Z_MSC_GDPS_DewPointDepression_IsbL-0050_LatLon0.15_PT084H.grib2 2026-04-19 04:23 350K
20260419T00Z_MSC_GDPS_DewPointDepression_IsbL-0100_LatLon0.15_PT084H.grib2 2026-04-19 04:23 391K
20260419T00Z_MSC_GDPS_DewPointDepression_IsbL-0150_LatLon0.15_PT084H.grib2 2026-04-19 04:23 469K
20260419T00Z_MSC_GDPS_DewPointDepression_IsbL-0175_LatLon0.15_PT084H.grib2 2026-04-19 04:23 562K
20260419T00Z_MSC_GDPS_DewPointDepression_IsbL-0200_LatLon0.15_PT084H.grib2 2026-04-19 04:23 647K
20260419T00Z_MSC_GDPS_DewPointDepression_IsbL-0225_LatLon0.15_PT084H.grib2 2026-04-19 04:23 763K
20260419T00Z_MSC_GDPS_DewPointDepression_IsbL-0250_LatLon0.15_PT084H.grib2 2026-04-19 04:23 859K
20260419T00Z_MSC_GDPS_DewPointDepression_IsbL-0275_LatLon0.15_PT084H.grib2 2026-04-19 04:23 876K
20260419T00Z_MSC_GDPS_DewPointDepression_IsbL-0300_LatLon0.15_PT084H.grib2 2026-04-19 04:23 920K
20260419T00Z_MSC_GDPS_DewPointDepression_IsbL-0350_LatLon0.15_PT084H.grib2 2026-04-19 04:23 961K
20260419T00Z_MSC_GDPS_DewPointDepression_IsbL-0400_LatLon0.15_PT084H.grib2 2026-04-19 04:23 1.0M
20260419T00Z_MSC_GDPS_DewPointDepression_IsbL-0450_LatLon0.15_PT084H.grib2 2026-04-19 04:23 1.0M
20260419T00Z_MSC_GDPS_DewPointDepression_IsbL-0500_LatLon0.15_PT084H.grib2 2026-04-19 04:23 1.0M
20260419T00Z_MSC_GDPS_DewPointDepression_IsbL-0550_LatLon0.15_PT084H.grib2 2026-04-19 04:23 1.0M
20260419T00Z_MSC_GDPS_DewPointDepression_IsbL-0600_LatLon0.15_PT084H.grib2 2026-04-19 04:23 1.1M
20260419T00Z_MSC_GDPS_DewPointDepression_IsbL-0650_LatLon0.15_PT084H.grib2 2026-04-19 04:23 1.1M
20260419T00Z_MSC_GDPS_DewPointDepression_IsbL-0700_LatLon0.15_PT084H.grib2 2026-04-19 04:23 1.1M
20260419T00Z_MSC_GDPS_DewPointDepression_IsbL-0750_LatLon0.15_PT084H.grib2 2026-04-19 04:23 1.1M
20260419T00Z_MSC_GDPS_DewPointDepression_IsbL-0800_LatLon0.15_PT084H.grib2 2026-04-19 04:23 1.2M
20260419T00Z_MSC_GDPS_DewPointDepression_IsbL-0850_LatLon0.15_PT084H.grib2 2026-04-19 04:23 1.1M
20260419T00Z_MSC_GDPS_DewPointDepression_IsbL-0875_LatLon0.15_PT084H.grib2 2026-04-19 04:23 1.1M
20260419T00Z_MSC_GDPS_DewPointDepression_IsbL-0900_LatLon0.15_PT084H.grib2 2026-04-19 04:23 1.0M
20260419T00Z_MSC_GDPS_DewPointDepression_IsbL-0925_LatLon0.15_PT084H.grib2 2026-04-19 04:23 1.0M
20260419T00Z_MSC_GDPS_DewPointDepression_IsbL-0950_LatLon0.15_PT084H.grib2 2026-04-19 04:23 1.0M
20260419T00Z_MSC_GDPS_DewPointDepression_IsbL-0970_LatLon0.15_PT084H.grib2 2026-04-19 04:23 1.0M
20260419T00Z_MSC_GDPS_DewPointDepression_IsbL-0985_LatLon0.15_PT084H.grib2 2026-04-19 04:23 969K
20260419T00Z_MSC_GDPS_DewPointDepression_IsbL-1000_LatLon0.15_PT084H.grib2 2026-04-19 04:23 957K
20260419T00Z_MSC_GDPS_DewPointDepression_IsbL-1015_LatLon0.15_PT084H.grib2 2026-04-19 04:23 898K
20260419T00Z_MSC_GDPS_DewPoint_AGL-2m_LatLon0.15_PT084H.grib2 2026-04-19 04:23 608K
20260419T00Z_MSC_GDPS_DownwardLongwaveRadiationFlux-Accum_Sfc_LatLon0.15_PT084H.grib2 2026-04-19 04:23 692K
20260419T00Z_MSC_GDPS_DownwardShortwaveRadiationFlux-Accum_NTAtm_LatLon0.15_PT084H.grib2 2026-04-19 04:23 291K
20260419T00Z_MSC_GDPS_DownwardShortwaveRadiationFlux-Accum_Sfc_LatLon0.15_PT084H.grib2 2026-04-19 04:23 918K
20260419T00Z_MSC_GDPS_FreezingRain-Accum12h_Sfc_LatLon0.15_PT084H.grib2 2026-04-19 04:23 88K
20260419T00Z_MSC_GDPS_FreezingRain-Accum1h_Sfc_LatLon0.15_PT084H.grib2 2026-04-19 04:23 36K
20260419T00Z_MSC_GDPS_FreezingRain-Accum24h_Sfc_LatLon0.15_PT084H.grib2 2026-04-19 04:23 116K
20260419T00Z_MSC_GDPS_FreezingRain-Accum3h_Sfc_LatLon0.15_PT084H.grib2 2026-04-19 04:23 41K
20260419T00Z_MSC_GDPS_FreezingRain-Accum6h_Sfc_LatLon0.15_PT084H.grib2 2026-04-19 04:23 63K
20260419T00Z_MSC_GDPS_FreezingRain-Accum_Sfc_LatLon0.15_PT084H.grib2 2026-04-19 04:23 229K
20260419T00Z_MSC_GDPS_GeopotentialHeight_IsbL-0001_LatLon0.15_PT084H.grib2 2026-04-19 04:23 395K
20260419T00Z_MSC_GDPS_GeopotentialHeight_IsbL-0005_LatLon0.15_PT084H.grib2 2026-04-19 04:23 481K
20260419T00Z_MSC_GDPS_GeopotentialHeight_IsbL-0010_LatLon0.15_PT084H.grib2 2026-04-19 04:23 422K
20260419T00Z_MSC_GDPS_GeopotentialHeight_IsbL-0020_LatLon0.15_PT084H.grib2 2026-04-19 04:23 571K
20260419T00Z_MSC_GDPS_GeopotentialHeight_IsbL-0030_LatLon0.15_PT084H.grib2 2026-04-19 04:23 579K
20260419T00Z_MSC_GDPS_GeopotentialHeight_IsbL-0050_LatLon0.15_PT084H.grib2 2026-04-19 04:23 584K
20260419T00Z_MSC_GDPS_GeopotentialHeight_IsbL-0100_LatLon0.15_PT084H.grib2 2026-04-19 04:23 616K
20260419T00Z_MSC_GDPS_GeopotentialHeight_IsbL-0150_LatLon0.15_PT084H.grib2 2026-04-19 04:23 631K
20260419T00Z_MSC_GDPS_GeopotentialHeight_IsbL-0175_LatLon0.15_PT084H.grib2 2026-04-19 04:23 638K
20260419T00Z_MSC_GDPS_GeopotentialHeight_IsbL-0200_LatLon0.15_PT084H.grib2 2026-04-19 04:23 644K
20260419T00Z_MSC_GDPS_GeopotentialHeight_IsbL-0225_LatLon0.15_PT084H.grib2 2026-04-19 04:23 648K
20260419T00Z_MSC_GDPS_GeopotentialHeight_IsbL-0250_LatLon0.15_PT084H.grib2 2026-04-19 04:23 650K
20260419T00Z_MSC_GDPS_GeopotentialHeight_IsbL-0275_LatLon0.15_PT084H.grib2 2026-04-19 04:23 648K
20260419T00Z_MSC_GDPS_GeopotentialHeight_IsbL-0300_LatLon0.15_PT084H.grib2 2026-04-19 04:23 641K
20260419T00Z_MSC_GDPS_GeopotentialHeight_IsbL-0350_LatLon0.15_PT084H.grib2 2026-04-19 04:23 639K
20260419T00Z_MSC_GDPS_GeopotentialHeight_IsbL-0400_LatLon0.15_PT084H.grib2 2026-04-19 04:23 628K
20260419T00Z_MSC_GDPS_GeopotentialHeight_IsbL-0450_LatLon0.15_PT084H.grib2 2026-04-19 04:23 617K
20260419T00Z_MSC_GDPS_GeopotentialHeight_IsbL-0500_LatLon0.15_PT084H.grib2 2026-04-19 04:23 539K
20260419T00Z_MSC_GDPS_GeopotentialHeight_IsbL-0550_LatLon0.15_PT084H.grib2 2026-04-19 04:23 533K
20260419T00Z_MSC_GDPS_GeopotentialHeight_IsbL-0600_LatLon0.15_PT084H.grib2 2026-04-19 04:23 695K
20260419T00Z_MSC_GDPS_GeopotentialHeight_IsbL-0650_LatLon0.15_PT084H.grib2 2026-04-19 04:23 695K
20260419T00Z_MSC_GDPS_GeopotentialHeight_IsbL-0700_LatLon0.15_PT084H.grib2 2026-04-19 04:23 691K
20260419T00Z_MSC_GDPS_GeopotentialHeight_IsbL-0750_LatLon0.15_PT084H.grib2 2026-04-19 04:23 693K
20260419T00Z_MSC_GDPS_GeopotentialHeight_IsbL-0800_LatLon0.15_PT084H.grib2 2026-04-19 04:23 705K
20260419T00Z_MSC_GDPS_GeopotentialHeight_IsbL-0850_LatLon0.15_PT084H.grib2 2026-04-19 04:23 713K
20260419T00Z_MSC_GDPS_GeopotentialHeight_IsbL-0875_LatLon0.15_PT084H.grib2 2026-04-19 04:23 712K
20260419T00Z_MSC_GDPS_GeopotentialHeight_IsbL-0900_LatLon0.15_PT084H.grib2 2026-04-19 04:23 723K
20260419T00Z_MSC_GDPS_GeopotentialHeight_IsbL-0925_LatLon0.15_PT084H.grib2 2026-04-19 04:23 726K
20260419T00Z_MSC_GDPS_GeopotentialHeight_IsbL-0950_LatLon0.15_PT084H.grib2 2026-04-19 04:23 733K
20260419T00Z_MSC_GDPS_GeopotentialHeight_IsbL-0970_LatLon0.15_PT084H.grib2 2026-04-19 04:23 747K
20260419T00Z_MSC_GDPS_GeopotentialHeight_IsbL-0985_LatLon0.15_PT084H.grib2 2026-04-19 04:23 762K
20260419T00Z_MSC_GDPS_GeopotentialHeight_IsbL-1000_LatLon0.15_PT084H.grib2 2026-04-19 04:23 785K
20260419T00Z_MSC_GDPS_GeopotentialHeight_IsbL-1015_LatLon0.15_PT084H.grib2 2026-04-19 04:23 807K
20260419T00Z_MSC_GDPS_Humidex_Sfc_LatLon0.15_PT084H.grib2 2026-04-19 04:23 5.3M
20260419T00Z_MSC_GDPS_IcePellets-Accum12h_Sfc_LatLon0.15_PT084H.grib2 2026-04-19 04:23 21K
20260419T00Z_MSC_GDPS_IcePellets-Accum1h_Sfc_LatLon0.15_PT084H.grib2 2026-04-19 04:23 9.9K
20260419T00Z_MSC_GDPS_IcePellets-Accum24h_Sfc_LatLon0.15_PT084H.grib2 2026-04-19 04:23 29K
20260419T00Z_MSC_GDPS_IcePellets-Accum3h_Sfc_LatLon0.15_PT084H.grib2 2026-04-19 04:23 12K
20260419T00Z_MSC_GDPS_IcePellets-Accum6h_Sfc_LatLon0.15_PT084H.grib2 2026-04-19 04:23 17K
20260419T00Z_MSC_GDPS_IcePellets-Accum_Sfc_LatLon0.15_PT084H.grib2 2026-04-19 04:23 121K
20260419T00Z_MSC_GDPS_KIndex_Sfc_LatLon0.15_PT084H.grib2 2026-04-19 04:23 6.5M
20260419T00Z_MSC_GDPS_LatentHeatNetFlux_Sfc_LatLon0.15_PT084H.grib2 2026-04-19 04:23 714K
20260419T00Z_MSC_GDPS_LiftedIndex-MU-VT_IsbL-0500_LatLon0.15_PT084H.grib2 2026-04-19 04:23 5.4M
20260419T00Z_MSC_GDPS_NetLongwaveRadiationFlux-Accum_Sfc_LatLon0.15_PT084H.grib2 2026-04-19 04:23 1.0M
20260419T00Z_MSC_GDPS_NetShortwaveRadiationFlux-Accum_Sfc_LatLon0.15_PT084H.grib2 2026-04-19 04:23 912K
20260419T00Z_MSC_GDPS_O3MixingRatio_LatLon0.15_PT084H.grib2 2026-04-19 04:55 2.2M
20260419T00Z_MSC_GDPS_O3_EAtm_LatLon0.15_PT084H.grib2 2026-04-19 04:55 2.5M
20260419T00Z_MSC_GDPS_PlanetaryBoundaryLayerHeight_Sfc_LatLon0.15_PT084H.grib2 2026-04-19 04:23 2.5M
20260419T00Z_MSC_GDPS_Precip-Accum12h_Sfc_LatLon0.15_PT084H.grib2 2026-04-19 04:23 4.0M
20260419T00Z_MSC_GDPS_Precip-Accum1h_Sfc_LatLon0.15_PT084H.grib2 2026-04-19 04:23 3.2M
20260419T00Z_MSC_GDPS_Precip-Accum24h_Sfc_LatLon0.15_PT084H.grib2 2026-04-19 04:23 4.5M
20260419T00Z_MSC_GDPS_Precip-Accum3h_Sfc_LatLon0.15_PT084H.grib2 2026-04-19 04:23 3.5M
20260419T00Z_MSC_GDPS_Precip-Accum6h_Sfc_LatLon0.15_PT084H.grib2 2026-04-19 04:23 3.8M
20260419T00Z_MSC_GDPS_Precip-Accum_Sfc_LatLon0.15_PT084H.grib2 2026-04-19 04:23 4.9M
20260419T00Z_MSC_GDPS_PrecipRate_Sfc_LatLon0.15_PT084H.grib2 2026-04-19 04:23 3.2M
20260419T00Z_MSC_GDPS_PrecipType-Instant_Sfc_LatLon0.15_PT084H.grib2 2026-04-19 04:23 1.6M
20260419T00Z_MSC_GDPS_Pressure_MSL_LatLon0.15_PT084H.grib2 2026-04-19 04:23 718K
20260419T00Z_MSC_GDPS_Pressure_PVU-1.5_LatLon0.15_PT084H.grib2 2026-04-19 04:23 5.8M
20260419T00Z_MSC_GDPS_Pressure_PVU-1_LatLon0.15_PT084H.grib2 2026-04-19 04:23 6.0M
20260419T00Z_MSC_GDPS_Pressure_PVU-2_LatLon0.15_PT084H.grib2 2026-04-19 04:23 5.6M
20260419T00Z_MSC_GDPS_Pressure_Sfc_LatLon0.15_PT084H.grib2 2026-04-19 04:23 1.1M
20260419T00Z_MSC_GDPS_RadiativeTemp_Sfc_LatLon0.15_PT084H.grib2 2026-04-19 04:23 497K
20260419T00Z_MSC_GDPS_Rain-Accum12h_Sfc_LatLon0.15_PT084H.grib2 2026-04-19 04:23 2.6M
20260419T00Z_MSC_GDPS_Rain-Accum1h_Sfc_LatLon0.15_PT084H.grib2 2026-04-19 04:23 1.6M
20260419T00Z_MSC_GDPS_Rain-Accum24h_Sfc_LatLon0.15_PT084H.grib2 2026-04-19 04:23 3.1M
20260419T00Z_MSC_GDPS_Rain-Accum3h_Sfc_LatLon0.15_PT084H.grib2 2026-04-19 04:23 1.8M
20260419T00Z_MSC_GDPS_Rain-Accum6h_Sfc_LatLon0.15_PT084H.grib2 2026-04-19 04:23 2.4M
20260419T00Z_MSC_GDPS_Rain-Accum_Sfc_LatLon0.15_PT084H.grib2 2026-04-19 04:23 4.0M
20260419T00Z_MSC_GDPS_RelativeHumidity_AGL-2m_LatLon0.15_PT084H.grib2 2026-04-19 04:23 1.0M
20260419T00Z_MSC_GDPS_RelativeHumidity_IsbL-0010_LatLon0.15_PT084H.grib2 2026-04-19 04:23 258K
20260419T00Z_MSC_GDPS_RelativeHumidity_IsbL-0020_LatLon0.15_PT084H.grib2 2026-04-19 04:23 247K
20260419T00Z_MSC_GDPS_RelativeHumidity_IsbL-0030_LatLon0.15_PT084H.grib2 2026-04-19 04:23 421K
20260419T00Z_MSC_GDPS_RelativeHumidity_IsbL-0050_LatLon0.15_PT084H.grib2 2026-04-19 04:23 419K
20260419T00Z_MSC_GDPS_RelativeHumidity_IsbL-0100_LatLon0.15_PT084H.grib2 2026-04-19 04:23 345K
20260419T00Z_MSC_GDPS_RelativeHumidity_IsbL-0150_LatLon0.15_PT084H.grib2 2026-04-19 04:23 653K
20260419T00Z_MSC_GDPS_RelativeHumidity_IsbL-0175_LatLon0.15_PT084H.grib2 2026-04-19 04:23 784K
20260419T00Z_MSC_GDPS_RelativeHumidity_IsbL-0200_LatLon0.15_PT084H.grib2 2026-04-19 04:23 694K
20260419T00Z_MSC_GDPS_RelativeHumidity_IsbL-0225_LatLon0.15_PT084H.grib2 2026-04-19 04:23 785K
20260419T00Z_MSC_GDPS_RelativeHumidity_IsbL-0250_LatLon0.15_PT084H.grib2 2026-04-19 04:23 868K
20260419T00Z_MSC_GDPS_RelativeHumidity_IsbL-0275_LatLon0.15_PT084H.grib2 2026-04-19 04:23 887K
20260419T00Z_MSC_GDPS_RelativeHumidity_IsbL-0300_LatLon0.15_PT084H.grib2 2026-04-19 04:23 927K
20260419T00Z_MSC_GDPS_RelativeHumidity_IsbL-0350_LatLon0.15_PT084H.grib2 2026-04-19 04:23 950K
20260419T00Z_MSC_GDPS_RelativeHumidity_IsbL-0400_LatLon0.15_PT084H.grib2 2026-04-19 04:23 1.0M
20260419T00Z_MSC_GDPS_RelativeHumidity_IsbL-0450_LatLon0.15_PT084H.grib2 2026-04-19 04:23 1.0M
20260419T00Z_MSC_GDPS_RelativeHumidity_IsbL-0500_LatLon0.15_PT084H.grib2 2026-04-19 04:23 1.0M
20260419T00Z_MSC_GDPS_RelativeHumidity_IsbL-0550_LatLon0.15_PT084H.grib2 2026-04-19 04:23 1.0M
20260419T00Z_MSC_GDPS_RelativeHumidity_IsbL-0600_LatLon0.15_PT084H.grib2 2026-04-19 04:23 1.1M
20260419T00Z_MSC_GDPS_RelativeHumidity_IsbL-0650_LatLon0.15_PT084H.grib2 2026-04-19 04:23 1.1M
20260419T00Z_MSC_GDPS_RelativeHumidity_IsbL-0700_LatLon0.15_PT084H.grib2 2026-04-19 04:23 1.1M
20260419T00Z_MSC_GDPS_RelativeHumidity_IsbL-0750_LatLon0.15_PT084H.grib2 2026-04-19 04:23 1.1M
20260419T00Z_MSC_GDPS_RelativeHumidity_IsbL-0800_LatLon0.15_PT084H.grib2 2026-04-19 04:23 1.2M
20260419T00Z_MSC_GDPS_RelativeHumidity_IsbL-0850_LatLon0.15_PT084H.grib2 2026-04-19 04:23 1.3M
20260419T00Z_MSC_GDPS_RelativeHumidity_IsbL-0875_LatLon0.15_PT084H.grib2 2026-04-19 04:23 1.2M
20260419T00Z_MSC_GDPS_RelativeHumidity_IsbL-0900_LatLon0.15_PT084H.grib2 2026-04-19 04:23 1.2M
20260419T00Z_MSC_GDPS_RelativeHumidity_IsbL-0925_LatLon0.15_PT084H.grib2 2026-04-19 04:23 1.2M
20260419T00Z_MSC_GDPS_RelativeHumidity_IsbL-0950_LatLon0.15_PT084H.grib2 2026-04-19 04:23 1.2M
20260419T00Z_MSC_GDPS_RelativeHumidity_IsbL-0970_LatLon0.15_PT084H.grib2 2026-04-19 04:23 1.1M
20260419T00Z_MSC_GDPS_RelativeHumidity_IsbL-0985_LatLon0.15_PT084H.grib2 2026-04-19 04:23 1.1M
20260419T00Z_MSC_GDPS_RelativeHumidity_IsbL-1000_LatLon0.15_PT084H.grib2 2026-04-19 04:23 1.1M
20260419T00Z_MSC_GDPS_RelativeHumidity_IsbL-1015_LatLon0.15_PT084H.grib2 2026-04-19 04:23 1.0M
20260419T00Z_MSC_GDPS_RelativeVorticity_IsbL-0200_LatLon0.15_PT084H.grib2 2026-04-19 04:23 1.5M
20260419T00Z_MSC_GDPS_RelativeVorticity_IsbL-0250_LatLon0.15_PT084H.grib2 2026-04-19 04:23 1.3M
20260419T00Z_MSC_GDPS_RelativeVorticity_IsbL-0500_LatLon0.15_PT084H.grib2 2026-04-19 04:23 1.5M
20260419T00Z_MSC_GDPS_RelativeVorticity_IsbL-0700_LatLon0.15_PT084H.grib2 2026-04-19 04:23 1.3M
20260419T00Z_MSC_GDPS_RelativeVorticity_IsbL-0850_LatLon0.15_PT084H.grib2 2026-04-19 04:23 1.6M
20260419T00Z_MSC_GDPS_Runoff-Accum_Sfc_LatLon0.15_PT084H.grib2 2026-04-19 04:23 102K
20260419T00Z_MSC_GDPS_SensibleHeatNetFlux_Sfc_LatLon0.15_PT084H.grib2 2026-04-19 04:23 478K
20260419T00Z_MSC_GDPS_ShowalterIndex_IsbL-0500_LatLon0.15_PT084H.grib2 2026-04-19 04:23 6.2M
20260419T00Z_MSC_GDPS_Snow-Accum12h_Sfc_LatLon0.15_PT084H.grib2 2026-04-19 04:23 1.4M
20260419T00Z_MSC_GDPS_Snow-Accum1h_Sfc_LatLon0.15_PT084H.grib2 2026-04-19 04:23 1.1M
20260419T00Z_MSC_GDPS_Snow-Accum24h_Sfc_LatLon0.15_PT084H.grib2 2026-04-19 04:23 1.6M
20260419T00Z_MSC_GDPS_Snow-Accum3h_Sfc_LatLon0.15_PT084H.grib2 2026-04-19 04:23 1.1M
20260419T00Z_MSC_GDPS_Snow-Accum6h_Sfc_LatLon0.15_PT084H.grib2 2026-04-19 04:23 1.3M
20260419T00Z_MSC_GDPS_Snow-Accum_Sfc_LatLon0.15_PT084H.grib2 2026-04-19 04:23 2.0M
20260419T00Z_MSC_GDPS_SnowDensity_Sfc_LatLon0.15_PT084H.grib2 2026-04-19 04:23 270K
20260419T00Z_MSC_GDPS_SnowDepth_Sfc_LatLon0.15_PT084H.grib2 2026-04-19 04:23 1.8M
20260419T00Z_MSC_GDPS_SoilTemp_DBS-0to10cm_LatLon0.15_PT084H.grib2 2026-04-19 04:23 509K
20260419T00Z_MSC_GDPS_SoilTemp_Sfc_LatLon0.15_PT084H.grib2 2026-04-19 04:23 594K
20260419T00Z_MSC_GDPS_SoilVolumetricIceContent_Sfc_LatLon0.15_PT084H.grib2 2026-04-19 04:23 219K
20260419T00Z_MSC_GDPS_SoilVolumetricWaterContent_DBS-0to10cm_LatLon0.15_PT084H.grib2 2026-04-19 04:23 558K
20260419T00Z_MSC_GDPS_SoilVolumetricWaterContent_DBS-0to1cm_LatLon0.15_PT084H.grib2 2026-04-19 04:23 647K
20260419T00Z_MSC_GDPS_SpecificHumidity_AGL-120m_LatLon0.15_PT084H.grib2 2026-04-19 04:23 1.1M
20260419T00Z_MSC_GDPS_SpecificHumidity_AGL-2m_LatLon0.15_PT084H.grib2 2026-04-19 04:23 1.2M
20260419T00Z_MSC_GDPS_SpecificHumidity_AGL-40m_LatLon0.15_PT084H.grib2 2026-04-19 04:23 1.1M
20260419T00Z_MSC_GDPS_SpecificHumidity_AGL-80m_LatLon0.15_PT084H.grib2 2026-04-19 04:23 1.1M
20260419T00Z_MSC_GDPS_SpecificHumidity_IsbL-0001_LatLon0.15_PT084H.grib2 2026-04-19 04:23 1.2M
20260419T00Z_MSC_GDPS_SpecificHumidity_IsbL-0005_LatLon0.15_PT084H.grib2 2026-04-19 04:23 1.4M
20260419T00Z_MSC_GDPS_SpecificHumidity_IsbL-0010_LatLon0.15_PT084H.grib2 2026-04-19 04:23 1.3M
20260419T00Z_MSC_GDPS_SpecificHumidity_IsbL-0020_LatLon0.15_PT084H.grib2 2026-04-19 04:23 1.3M
20260419T00Z_MSC_GDPS_SpecificHumidity_IsbL-0030_LatLon0.15_PT084H.grib2 2026-04-19 04:23 1.6M
20260419T00Z_MSC_GDPS_SpecificHumidity_IsbL-0050_LatLon0.15_PT084H.grib2 2026-04-19 04:23 1.3M
20260419T00Z_MSC_GDPS_SpecificHumidity_IsbL-0100_LatLon0.15_PT084H.grib2 2026-04-19 04:23 1.3M
20260419T00Z_MSC_GDPS_SpecificHumidity_IsbL-0150_LatLon0.15_PT084H.grib2 2026-04-19 04:23 1.3M
20260419T00Z_MSC_GDPS_SpecificHumidity_IsbL-0175_LatLon0.15_PT084H.grib2 2026-04-19 04:23 1.3M
20260419T00Z_MSC_GDPS_SpecificHumidity_IsbL-0200_LatLon0.15_PT084H.grib2 2026-04-19 04:23 1.3M
20260419T00Z_MSC_GDPS_SpecificHumidity_IsbL-0225_LatLon0.15_PT084H.grib2 2026-04-19 04:23 1.3M
20260419T00Z_MSC_GDPS_SpecificHumidity_IsbL-0250_LatLon0.15_PT084H.grib2 2026-04-19 04:23 1.4M
20260419T00Z_MSC_GDPS_SpecificHumidity_IsbL-0275_LatLon0.15_PT084H.grib2 2026-04-19 04:23 1.3M
20260419T00Z_MSC_GDPS_SpecificHumidity_IsbL-0300_LatLon0.15_PT084H.grib2 2026-04-19 04:23 1.2M
20260419T00Z_MSC_GDPS_SpecificHumidity_IsbL-0350_LatLon0.15_PT084H.grib2 2026-04-19 04:23 1.2M
20260419T00Z_MSC_GDPS_SpecificHumidity_IsbL-0400_LatLon0.15_PT084H.grib2 2026-04-19 04:23 1.5M
20260419T00Z_MSC_GDPS_SpecificHumidity_IsbL-0450_LatLon0.15_PT084H.grib2 2026-04-19 04:23 1.3M
20260419T00Z_MSC_GDPS_SpecificHumidity_IsbL-0500_LatLon0.15_PT084H.grib2 2026-04-19 04:23 1.4M
20260419T00Z_MSC_GDPS_SpecificHumidity_IsbL-0550_LatLon0.15_PT084H.grib2 2026-04-19 04:23 1.6M
20260419T00Z_MSC_GDPS_SpecificHumidity_IsbL-0600_LatLon0.15_PT084H.grib2 2026-04-19 04:23 1.4M
20260419T00Z_MSC_GDPS_SpecificHumidity_IsbL-0650_LatLon0.15_PT084H.grib2 2026-04-19 04:23 1.5M
20260419T00Z_MSC_GDPS_SpecificHumidity_IsbL-0700_LatLon0.15_PT084H.grib2 2026-04-19 04:23 1.6M
20260419T00Z_MSC_GDPS_SpecificHumidity_IsbL-0750_LatLon0.15_PT084H.grib2 2026-04-19 04:23 1.7M
20260419T00Z_MSC_GDPS_SpecificHumidity_IsbL-0800_LatLon0.15_PT084H.grib2 2026-04-19 04:23 1.8M
20260419T00Z_MSC_GDPS_SpecificHumidity_IsbL-0850_LatLon0.15_PT084H.grib2 2026-04-19 04:23 1.9M
20260419T00Z_MSC_GDPS_SpecificHumidity_IsbL-0875_LatLon0.15_PT084H.grib2 2026-04-19 04:23 1.9M
20260419T00Z_MSC_GDPS_SpecificHumidity_IsbL-0900_LatLon0.15_PT084H.grib2 2026-04-19 04:23 1.9M
20260419T00Z_MSC_GDPS_SpecificHumidity_IsbL-0925_LatLon0.15_PT084H.grib2 2026-04-19 04:23 1.6M
20260419T00Z_MSC_GDPS_SpecificHumidity_IsbL-0950_LatLon0.15_PT084H.grib2 2026-04-19 04:23 1.5M
20260419T00Z_MSC_GDPS_SpecificHumidity_IsbL-0970_LatLon0.15_PT084H.grib2 2026-04-19 04:23 1.5M
20260419T00Z_MSC_GDPS_SpecificHumidity_IsbL-0985_LatLon0.15_PT084H.grib2 2026-04-19 04:23 1.5M
20260419T00Z_MSC_GDPS_SpecificHumidity_IsbL-1000_LatLon0.15_PT084H.grib2 2026-04-19 04:23 1.5M
20260419T00Z_MSC_GDPS_SpecificHumidity_IsbL-1015_LatLon0.15_PT084H.grib2 2026-04-19 04:23 1.4M
20260419T00Z_MSC_GDPS_SpecificHumidity_Sfc_LatLon0.15_PT084H.grib2 2026-04-19 04:23 675K
20260419T00Z_MSC_GDPS_Thickness_IsbL-0850to0700_LatLon0.15_PT084H.grib2 2026-04-19 04:23 471K
20260419T00Z_MSC_GDPS_Thickness_IsbL-1000to0500_LatLon0.15_PT084H.grib2 2026-04-19 04:23 378K
20260419T00Z_MSC_GDPS_Thickness_IsbL-1000to0850_LatLon0.15_PT084H.grib2 2026-04-19 04:23 489K
20260419T00Z_MSC_GDPS_TotalCloudCover_Sfc_LatLon0.15_PT084H.grib2 2026-04-19 04:23 822K
20260419T00Z_MSC_GDPS_TotalTotalsIndex_Sfc_LatLon0.15_PT084H.grib2 2026-04-19 04:23 6.2M
20260419T00Z_MSC_GDPS_UVIndex-ClearSky_Sfc_LatLon0.15_PT084H.grib2 2026-04-19 04:55 1.0M
20260419T00Z_MSC_GDPS_UVIndex_Sfc_LatLon0.15_PT084H.grib2 2026-04-19 04:55 1.4M
20260419T00Z_MSC_GDPS_UpwardLongwaveRadiationFlux_NTAtm_LatLon0.15_PT084H.grib2 2026-04-19 04:23 843K
20260419T00Z_MSC_GDPS_VerticalVelocity_IsbL-0200_LatLon0.15_PT084H.grib2 2026-04-19 04:23 945K
20260419T00Z_MSC_GDPS_VerticalVelocity_IsbL-0250_LatLon0.15_PT084H.grib2 2026-04-19 04:23 1.1M
20260419T00Z_MSC_GDPS_VerticalVelocity_IsbL-0500_LatLon0.15_PT084H.grib2 2026-04-19 04:23 1.0M
20260419T00Z_MSC_GDPS_VerticalVelocity_IsbL-0600_LatLon0.15_PT084H.grib2 2026-04-19 04:23 1.1M
20260419T00Z_MSC_GDPS_VerticalVelocity_IsbL-0700_LatLon0.15_PT084H.grib2 2026-04-19 04:23 1.2M
20260419T00Z_MSC_GDPS_VerticalVelocity_IsbL-0850_LatLon0.15_PT084H.grib2 2026-04-19 04:23 1.6M
20260419T00Z_MSC_GDPS_WindChill_Sfc_LatLon0.15_PT084H.grib2 2026-04-19 04:23 5.3M
20260419T00Z_MSC_GDPS_WindDir_AGL-10m_LatLon0.15_PT084H.grib2 2026-04-19 04:23 1.3M
20260419T00Z_MSC_GDPS_WindDir_AGL-120m_LatLon0.15_PT084H.grib2 2026-04-19 04:23 1.4M
20260419T00Z_MSC_GDPS_WindDir_AGL-40m_LatLon0.15_PT084H.grib2 2026-04-19 04:23 1.4M
20260419T00Z_MSC_GDPS_WindDir_AGL-80m_LatLon0.15_PT084H.grib2 2026-04-19 04:23 1.4M
20260419T00Z_MSC_GDPS_WindDir_IsbL-0001_LatLon0.15_PT084H.grib2 2026-04-19 04:23 638K
20260419T00Z_MSC_GDPS_WindDir_IsbL-0005_LatLon0.15_PT084H.grib2 2026-04-19 04:23 801K
20260419T00Z_MSC_GDPS_WindDir_IsbL-0010_LatLon0.15_PT084H.grib2 2026-04-19 04:23 852K
20260419T00Z_MSC_GDPS_WindDir_IsbL-0020_LatLon0.15_PT084H.grib2 2026-04-19 04:23 934K
20260419T00Z_MSC_GDPS_WindDir_IsbL-0030_LatLon0.15_PT084H.grib2 2026-04-19 04:23 911K
20260419T00Z_MSC_GDPS_WindDir_IsbL-0050_LatLon0.15_PT084H.grib2 2026-04-19 04:23 948K
20260419T00Z_MSC_GDPS_WindDir_IsbL-0100_LatLon0.15_PT084H.grib2 2026-04-19 04:23 1.0M
20260419T00Z_MSC_GDPS_WindDir_IsbL-0150_LatLon0.15_PT084H.grib2 2026-04-19 04:23 1.0M
20260419T00Z_MSC_GDPS_WindDir_IsbL-0175_LatLon0.15_PT084H.grib2 2026-04-19 04:23 1.0M
20260419T00Z_MSC_GDPS_WindDir_IsbL-0200_LatLon0.15_PT084H.grib2 2026-04-19 04:23 1.1M
20260419T00Z_MSC_GDPS_WindDir_IsbL-0225_LatLon0.15_PT084H.grib2 2026-04-19 04:23 1.1M
20260419T00Z_MSC_GDPS_WindDir_IsbL-0250_LatLon0.15_PT084H.grib2 2026-04-19 04:23 1.1M
20260419T00Z_MSC_GDPS_WindDir_IsbL-0275_LatLon0.15_PT084H.grib2 2026-04-19 04:23 1.1M
20260419T00Z_MSC_GDPS_WindDir_IsbL-0300_LatLon0.15_PT084H.grib2 2026-04-19 04:23 1.1M
20260419T00Z_MSC_GDPS_WindDir_IsbL-0350_LatLon0.15_PT084H.grib2 2026-04-19 04:23 1.2M
20260419T00Z_MSC_GDPS_WindDir_IsbL-0400_LatLon0.15_PT084H.grib2 2026-04-19 04:23 1.2M
20260419T00Z_MSC_GDPS_WindDir_IsbL-0450_LatLon0.15_PT084H.grib2 2026-04-19 04:23 1.3M
20260419T00Z_MSC_GDPS_WindDir_IsbL-0500_LatLon0.15_PT084H.grib2 2026-04-19 04:23 1.3M
20260419T00Z_MSC_GDPS_WindDir_IsbL-0550_LatLon0.15_PT084H.grib2 2026-04-19 04:23 1.4M
20260419T00Z_MSC_GDPS_WindDir_IsbL-0600_LatLon0.15_PT084H.grib2 2026-04-19 04:23 1.4M
20260419T00Z_MSC_GDPS_WindDir_IsbL-0650_LatLon0.15_PT084H.grib2 2026-04-19 04:23 1.5M
20260419T00Z_MSC_GDPS_WindDir_IsbL-0700_LatLon0.15_PT084H.grib2 2026-04-19 04:23 1.6M
20260419T00Z_MSC_GDPS_WindDir_IsbL-0750_LatLon0.15_PT084H.grib2 2026-04-19 04:23 1.7M
20260419T00Z_MSC_GDPS_WindDir_IsbL-0800_LatLon0.15_PT084H.grib2 2026-04-19 04:23 1.8M
20260419T00Z_MSC_GDPS_WindDir_IsbL-0850_LatLon0.15_PT084H.grib2 2026-04-19 04:23 1.9M
20260419T00Z_MSC_GDPS_WindDir_IsbL-0875_LatLon0.15_PT084H.grib2 2026-04-19 04:23 1.9M
20260419T00Z_MSC_GDPS_WindDir_IsbL-0900_LatLon0.15_PT084H.grib2 2026-04-19 04:23 2.0M
20260419T00Z_MSC_GDPS_WindDir_IsbL-0925_LatLon0.15_PT084H.grib2 2026-04-19 04:23 2.0M
20260419T00Z_MSC_GDPS_WindDir_IsbL-0950_LatLon0.15_PT084H.grib2 2026-04-19 04:23 2.0M
20260419T00Z_MSC_GDPS_WindDir_IsbL-0970_LatLon0.15_PT084H.grib2 2026-04-19 04:23 2.0M
20260419T00Z_MSC_GDPS_WindDir_IsbL-0985_LatLon0.15_PT084H.grib2 2026-04-19 04:23 2.0M
20260419T00Z_MSC_GDPS_WindDir_IsbL-1000_LatLon0.15_PT084H.grib2 2026-04-19 04:23 2.1M
20260419T00Z_MSC_GDPS_WindDir_IsbL-1015_LatLon0.15_PT084H.grib2 2026-04-19 04:23 2.0M
20260419T00Z_MSC_GDPS_WindGust-Max_AGL-10m_LatLon0.15_PT084H.grib2 2026-04-19 04:23 2.2M
20260419T00Z_MSC_GDPS_WindGust-Min_AGL-10m_LatLon0.15_PT084H.grib2 2026-04-19 04:23 2.2M
20260419T00Z_MSC_GDPS_WindGust_AGL-10m_LatLon0.15_PT084H.grib2 2026-04-19 04:23 2.1M
20260419T00Z_MSC_GDPS_WindSpeed_AGL-10m_LatLon0.15_PT084H.grib2 2026-04-19 04:23 1.1M
20260419T00Z_MSC_GDPS_WindSpeed_AGL-120m_LatLon0.15_PT084H.grib2 2026-04-19 04:23 1.2M
20260419T00Z_MSC_GDPS_WindSpeed_AGL-40m_LatLon0.15_PT084H.grib2 2026-04-19 04:23 1.2M
20260419T00Z_MSC_GDPS_WindSpeed_AGL-80m_LatLon0.15_PT084H.grib2 2026-04-19 04:23 1.2M
20260419T00Z_MSC_GDPS_WindSpeed_IsbL-0001_LatLon0.15_PT084H.grib2 2026-04-19 04:23 634K
20260419T00Z_MSC_GDPS_WindSpeed_IsbL-0005_LatLon0.15_PT084H.grib2 2026-04-19 04:23 606K
20260419T00Z_MSC_GDPS_WindSpeed_IsbL-0010_LatLon0.15_PT084H.grib2 2026-04-19 04:23 623K
20260419T00Z_MSC_GDPS_WindSpeed_IsbL-0020_LatLon0.15_PT084H.grib2 2026-04-19 04:23 855K
20260419T00Z_MSC_GDPS_WindSpeed_IsbL-0030_LatLon0.15_PT084H.grib2 2026-04-19 04:23 855K
20260419T00Z_MSC_GDPS_WindSpeed_IsbL-0050_LatLon0.15_PT084H.grib2 2026-04-19 04:23 1.0M
20260419T00Z_MSC_GDPS_WindSpeed_IsbL-0100_LatLon0.15_PT084H.grib2 2026-04-19 04:23 1.1M
20260419T00Z_MSC_GDPS_WindSpeed_IsbL-0150_LatLon0.15_PT084H.grib2 2026-04-19 04:23 948K
20260419T00Z_MSC_GDPS_WindSpeed_IsbL-0175_LatLon0.15_PT084H.grib2 2026-04-19 04:23 1.0M
20260419T00Z_MSC_GDPS_WindSpeed_IsbL-0200_LatLon0.15_PT084H.grib2 2026-04-19 04:23 1.1M
20260419T00Z_MSC_GDPS_WindSpeed_IsbL-0225_LatLon0.15_PT084H.grib2 2026-04-19 04:23 1.1M
20260419T00Z_MSC_GDPS_WindSpeed_IsbL-0250_LatLon0.15_PT084H.grib2 2026-04-19 04:23 1.1M
20260419T00Z_MSC_GDPS_WindSpeed_IsbL-0275_LatLon0.15_PT084H.grib2 2026-04-19 04:23 1.1M
20260419T00Z_MSC_GDPS_WindSpeed_IsbL-0300_LatLon0.15_PT084H.grib2 2026-04-19 04:23 1.1M
20260419T00Z_MSC_GDPS_WindSpeed_IsbL-0350_LatLon0.15_PT084H.grib2 2026-04-19 04:23 1.1M
20260419T00Z_MSC_GDPS_WindSpeed_IsbL-0400_LatLon0.15_PT084H.grib2 2026-04-19 04:23 1.1M
20260419T00Z_MSC_GDPS_WindSpeed_IsbL-0450_LatLon0.15_PT084H.grib2 2026-04-19 04:23 1.1M
20260419T00Z_MSC_GDPS_WindSpeed_IsbL-0500_LatLon0.15_PT084H.grib2 2026-04-19 04:23 1.1M
20260419T00Z_MSC_GDPS_WindSpeed_IsbL-0550_LatLon0.15_PT084H.grib2 2026-04-19 04:23 1.1M
20260419T00Z_MSC_GDPS_WindSpeed_IsbL-0600_LatLon0.15_PT084H.grib2 2026-04-19 04:23 1.4M
20260419T00Z_MSC_GDPS_WindSpeed_IsbL-0650_LatLon0.15_PT084H.grib2 2026-04-19 04:23 1.4M
20260419T00Z_MSC_GDPS_WindSpeed_IsbL-0700_LatLon0.15_PT084H.grib2 2026-04-19 04:23 1.5M
20260419T00Z_MSC_GDPS_WindSpeed_IsbL-0750_LatLon0.15_PT084H.grib2 2026-04-19 04:23 1.6M
20260419T00Z_MSC_GDPS_WindSpeed_IsbL-0800_LatLon0.15_PT084H.grib2 2026-04-19 04:23 1.6M
20260419T00Z_MSC_GDPS_WindSpeed_IsbL-0850_LatLon0.15_PT084H.grib2 2026-04-19 04:23 1.7M
20260419T00Z_MSC_GDPS_WindSpeed_IsbL-0875_LatLon0.15_PT084H.grib2 2026-04-19 04:23 1.8M
20260419T00Z_MSC_GDPS_WindSpeed_IsbL-0900_LatLon0.15_PT084H.grib2 2026-04-19 04:23 1.8M
20260419T00Z_MSC_GDPS_WindSpeed_IsbL-0925_LatLon0.15_PT084H.grib2 2026-04-19 04:23 1.8M
20260419T00Z_MSC_GDPS_WindSpeed_IsbL-0950_LatLon0.15_PT084H.grib2 2026-04-19 04:23 1.9M
20260419T00Z_MSC_GDPS_WindSpeed_IsbL-0970_LatLon0.15_PT084H.grib2 2026-04-19 04:23 1.9M
20260419T00Z_MSC_GDPS_WindSpeed_IsbL-0985_LatLon0.15_PT084H.grib2 2026-04-19 04:23 1.8M
20260419T00Z_MSC_GDPS_WindSpeed_IsbL-1000_LatLon0.15_PT084H.grib2 2026-04-19 04:23 1.8M
20260419T00Z_MSC_GDPS_WindSpeed_IsbL-1015_LatLon0.15_PT084H.grib2 2026-04-19 04:23 1.8M
20260419T00Z_MSC_GDPS_WindU_AGL-10m_LatLon0.15_PT084H.grib2 2026-04-19 04:23 1.3M
20260419T00Z_MSC_GDPS_WindU_AGL-120m_LatLon0.15_PT084H.grib2 2026-04-19 04:23 1.0M
20260419T00Z_MSC_GDPS_WindU_AGL-40m_LatLon0.15_PT084H.grib2 2026-04-19 04:23 964K
20260419T00Z_MSC_GDPS_WindU_AGL-80m_LatLon0.15_PT084H.grib2 2026-04-19 04:23 967K
20260419T00Z_MSC_GDPS_WindU_IsbL-0001_LatLon0.15_PT084H.grib2 2026-04-19 04:23 635K
20260419T00Z_MSC_GDPS_WindU_IsbL-0005_LatLon0.15_PT084H.grib2 2026-04-19 04:23 681K
20260419T00Z_MSC_GDPS_WindU_IsbL-0010_LatLon0.15_PT084H.grib2 2026-04-19 04:23 697K
20260419T00Z_MSC_GDPS_WindU_IsbL-0020_LatLon0.15_PT084H.grib2 2026-04-19 04:23 732K
20260419T00Z_MSC_GDPS_WindU_IsbL-0030_LatLon0.15_PT084H.grib2 2026-04-19 04:23 735K
20260419T00Z_MSC_GDPS_WindU_IsbL-0050_LatLon0.15_PT084H.grib2 2026-04-19 04:23 703K
20260419T00Z_MSC_GDPS_WindU_IsbL-0100_LatLon0.15_PT084H.grib2 2026-04-19 04:23 920K
20260419T00Z_MSC_GDPS_WindU_IsbL-0150_LatLon0.15_PT084H.grib2 2026-04-19 04:23 1.0M
20260419T00Z_MSC_GDPS_WindU_IsbL-0175_LatLon0.15_PT084H.grib2 2026-04-19 04:23 1.0M
20260419T00Z_MSC_GDPS_WindU_IsbL-0200_LatLon0.15_PT084H.grib2 2026-04-19 04:23 848K
20260419T00Z_MSC_GDPS_WindU_IsbL-0225_LatLon0.15_PT084H.grib2 2026-04-19 04:23 858K
20260419T00Z_MSC_GDPS_WindU_IsbL-0250_LatLon0.15_PT084H.grib2 2026-04-19 04:23 858K
20260419T00Z_MSC_GDPS_WindU_IsbL-0275_LatLon0.15_PT084H.grib2 2026-04-19 04:23 884K
20260419T00Z_MSC_GDPS_WindU_IsbL-0300_LatLon0.15_PT084H.grib2 2026-04-19 04:23 873K
20260419T00Z_MSC_GDPS_WindU_IsbL-0350_LatLon0.15_PT084H.grib2 2026-04-19 04:23 885K
20260419T00Z_MSC_GDPS_WindU_IsbL-0400_LatLon0.15_PT084H.grib2 2026-04-19 04:23 888K
20260419T00Z_MSC_GDPS_WindU_IsbL-0450_LatLon0.15_PT084H.grib2 2026-04-19 04:23 1.1M
20260419T00Z_MSC_GDPS_WindU_IsbL-0500_LatLon0.15_PT084H.grib2 2026-04-19 04:23 1.1M
20260419T00Z_MSC_GDPS_WindU_IsbL-0550_LatLon0.15_PT084H.grib2 2026-04-19 04:23 1.1M
20260419T00Z_MSC_GDPS_WindU_IsbL-0600_LatLon0.15_PT084H.grib2 2026-04-19 04:23 1.1M
20260419T00Z_MSC_GDPS_WindU_IsbL-0650_LatLon0.15_PT084H.grib2 2026-04-19 04:23 1.2M
20260419T00Z_MSC_GDPS_WindU_IsbL-0700_LatLon0.15_PT084H.grib2 2026-04-19 04:23 1.2M
20260419T00Z_MSC_GDPS_WindU_IsbL-0750_LatLon0.15_PT084H.grib2 2026-04-19 04:23 1.3M
20260419T00Z_MSC_GDPS_WindU_IsbL-0800_LatLon0.15_PT084H.grib2 2026-04-19 04:23 1.3M
20260419T00Z_MSC_GDPS_WindU_IsbL-0850_LatLon0.15_PT084H.grib2 2026-04-19 04:23 1.4M
20260419T00Z_MSC_GDPS_WindU_IsbL-0875_LatLon0.15_PT084H.grib2 2026-04-19 04:23 1.4M
20260419T00Z_MSC_GDPS_WindU_IsbL-0900_LatLon0.15_PT084H.grib2 2026-04-19 04:23 1.4M
20260419T00Z_MSC_GDPS_WindU_IsbL-0925_LatLon0.15_PT084H.grib2 2026-04-19 04:23 1.4M
20260419T00Z_MSC_GDPS_WindU_IsbL-0950_LatLon0.15_PT084H.grib2 2026-04-19 04:23 1.4M
20260419T00Z_MSC_GDPS_WindU_IsbL-0970_LatLon0.15_PT084H.grib2 2026-04-19 04:23 1.4M
20260419T00Z_MSC_GDPS_WindU_IsbL-0985_LatLon0.15_PT084H.grib2 2026-04-19 04:23 1.4M
20260419T00Z_MSC_GDPS_WindU_IsbL-1000_LatLon0.15_PT084H.grib2 2026-04-19 04:23 1.4M
20260419T00Z_MSC_GDPS_WindU_IsbL-1015_LatLon0.15_PT084H.grib2 2026-04-19 04:23 1.3M
20260419T00Z_MSC_GDPS_WindV_AGL-10m_LatLon0.15_PT084H.grib2 2026-04-19 04:23 1.6M
20260419T00Z_MSC_GDPS_WindV_AGL-120m_LatLon0.15_PT084H.grib2 2026-04-19 04:23 969K
20260419T00Z_MSC_GDPS_WindV_AGL-40m_LatLon0.15_PT084H.grib2 2026-04-19 04:23 1.2M
20260419T00Z_MSC_GDPS_WindV_AGL-80m_LatLon0.15_PT084H.grib2 2026-04-19 04:23 970K
20260419T00Z_MSC_GDPS_WindV_IsbL-0001_LatLon0.15_PT084H.grib2 2026-04-19 04:23 692K
20260419T00Z_MSC_GDPS_WindV_IsbL-0005_LatLon0.15_PT084H.grib2 2026-04-19 04:23 845K
20260419T00Z_MSC_GDPS_WindV_IsbL-0010_LatLon0.15_PT084H.grib2 2026-04-19 04:23 875K
20260419T00Z_MSC_GDPS_WindV_IsbL-0020_LatLon0.15_PT084H.grib2 2026-04-19 04:23 845K
20260419T00Z_MSC_GDPS_WindV_IsbL-0030_LatLon0.15_PT084H.grib2 2026-04-19 04:23 843K
20260419T00Z_MSC_GDPS_WindV_IsbL-0050_LatLon0.15_PT084H.grib2 2026-04-19 04:23 1.0M
20260419T00Z_MSC_GDPS_WindV_IsbL-0100_LatLon0.15_PT084H.grib2 2026-04-19 04:23 849K
20260419T00Z_MSC_GDPS_WindV_IsbL-0150_LatLon0.15_PT084H.grib2 2026-04-19 04:23 1.0M
20260419T00Z_MSC_GDPS_WindV_IsbL-0175_LatLon0.15_PT084H.grib2 2026-04-19 04:23 1.0M
20260419T00Z_MSC_GDPS_WindV_IsbL-0200_LatLon0.15_PT084H.grib2 2026-04-19 04:23 846K
20260419T00Z_MSC_GDPS_WindV_IsbL-0225_LatLon0.15_PT084H.grib2 2026-04-19 04:23 856K
20260419T00Z_MSC_GDPS_WindV_IsbL-0250_LatLon0.15_PT084H.grib2 2026-04-19 04:23 856K
20260419T00Z_MSC_GDPS_WindV_IsbL-0275_LatLon0.15_PT084H.grib2 2026-04-19 04:23 939K
20260419T00Z_MSC_GDPS_WindV_IsbL-0300_LatLon0.15_PT084H.grib2 2026-04-19 04:23 928K
20260419T00Z_MSC_GDPS_WindV_IsbL-0350_LatLon0.15_PT084H.grib2 2026-04-19 04:23 937K
20260419T00Z_MSC_GDPS_WindV_IsbL-0400_LatLon0.15_PT084H.grib2 2026-04-19 04:23 937K
20260419T00Z_MSC_GDPS_WindV_IsbL-0450_LatLon0.15_PT084H.grib2 2026-04-19 04:23 882K
20260419T00Z_MSC_GDPS_WindV_IsbL-0500_LatLon0.15_PT084H.grib2 2026-04-19 04:23 887K
20260419T00Z_MSC_GDPS_WindV_IsbL-0550_LatLon0.15_PT084H.grib2 2026-04-19 04:23 1.1M
20260419T00Z_MSC_GDPS_WindV_IsbL-0600_LatLon0.15_PT084H.grib2 2026-04-19 04:23 1.1M
20260419T00Z_MSC_GDPS_WindV_IsbL-0650_LatLon0.15_PT084H.grib2 2026-04-19 04:23 1.2M
20260419T00Z_MSC_GDPS_WindV_IsbL-0700_LatLon0.15_PT084H.grib2 2026-04-19 04:23 1.2M
20260419T00Z_MSC_GDPS_WindV_IsbL-0750_LatLon0.15_PT084H.grib2 2026-04-19 04:23 1.2M
20260419T00Z_MSC_GDPS_WindV_IsbL-0800_LatLon0.15_PT084H.grib2 2026-04-19 04:23 1.3M
20260419T00Z_MSC_GDPS_WindV_IsbL-0850_LatLon0.15_PT084H.grib2 2026-04-19 04:23 1.4M
20260419T00Z_MSC_GDPS_WindV_IsbL-0875_LatLon0.15_PT084H.grib2 2026-04-19 04:23 1.4M
20260419T00Z_MSC_GDPS_WindV_IsbL-0900_LatLon0.15_PT084H.grib2 2026-04-19 04:23 1.4M
20260419T00Z_MSC_GDPS_WindV_IsbL-0925_LatLon0.15_PT084H.grib2 2026-04-19 04:23 1.4M
20260419T00Z_MSC_GDPS_WindV_IsbL-0950_LatLon0.15_PT084H.grib2 2026-04-19 04:23 1.4M
20260419T00Z_MSC_GDPS_WindV_IsbL-0970_LatLon0.15_PT084H.grib2 2026-04-19 04:23 1.4M
20260419T00Z_MSC_GDPS_WindV_IsbL-0985_LatLon0.15_PT084H.grib2 2026-04-19 04:23 1.4M
20260419T00Z_MSC_GDPS_WindV_IsbL-1000_LatLon0.15_PT084H.grib2 2026-04-19 04:23 1.7M
20260419T00Z_MSC_GDPS_WindV_IsbL-1015_LatLon0.15_PT084H.grib2 2026-04-19 04:23 1.6M